Time,TemperatureF,DewpointF,PressureIn,WindDirection,WindDirectionDegrees,WindSpeedMPH,WindSpeedGustMPH,Humidity,HourlyPrecipIn,Conditions,Clouds,dailyrainin,SoftwareType,DateUTC
2013-12-12 00:22:00,31.0,26.0,30.63,North,11,0.0,-999.0,81,-99.99,,,-99.99,,2013-12-12 06:22:00,
2013-12-12 00:43:00,31.0,26.0,30.63,North,11,0.0,-999.0,81,-99.99,,,-99.99,,2013-12-12 06:43:00,
2013-12-12 00:53:00,31.0,26.0,30.63,North,11,0.0,-999.0,81,-99.99,,,-99.99,,2013-12-12 06:53:00,
2013-12-12 01:22:00,30.0,25.0,30.63,North,11,0.0,-999.0,83,-99.99,,,-99.99,,2013-12-12 07:22:00,
2013-12-12 01:42:00,30.0,25.0,30.62,North,11,0.0,-999.0,83,-99.99,,,-99.99,,2013-12-12 07:42:00,
2013-12-12 01:52:00,30.0,25.0,30.62,North,11,0.0,-999.0,83,-99.99,,,-99.99,,2013-12-12 07:52:00,
2013-12-12 02:22:00,30.0,25.0,30.62,North,11,0.0,-999.0,83,-99.99,,,-99.99,,2013-12-12 08:22:00,
2013-12-12 02:42:00,30.0,25.0,30.62,North,11,0.0,-999.0,83,-99.99,,,-99.99,,2013-12-12 08:42:00,
2013-12-12 02:52:00,29.0,25.0,30.63,North,11,0.0,-999.0,85,-99.99,,,-99.99,,2013-12-12 08:52:00,
2013-12-12 03:22:00,29.0,25.0,30.63,North,11,0.0,-999.0,85,-99.99,,,-99.99,,2013-12-12 09:22:00,
2013-12-12 03:43:00,29.0,25.0,30.63,North,11,0.0,-999.0,84,-99.99,,,-99.99,,2013-12-12 09:43:00,
2013-12-12 03:54:00,29.0,25.0,30.63,North,11,0.0,-999.0,84,-99.99,,,-99.99,,2013-12-12 09:54:00,
2013-12-12 04:12:00,28.0,24.0,30.63,North,11,0.0,-999.0,84,-99.99,,,-99.99,,2013-12-12 10:12:00,
2013-12-12 04:23:00,28.0,24.0,30.64,North,11,0.0,-999.0,84,-99.99,,,-99.99,,2013-12-12 10:23:00,
2013-12-12 04:43:00,28.0,24.0,30.64,North,11,0.0,-999.0,85,-99.99,,,-99.99,,2013-12-12 10:43:00,
2013-12-12 04:53:00,28.0,24.0,30.63,North,11,0.0,-999.0,85,-99.99,,,-99.99,,2013-12-12 10:53:00,
2013-12-12 05:23:00,27.0,23.0,30.63,North,11,0.0,-999.0,85,-99.99,,,-99.99,,2013-12-12 11:23:00,
2013-12-12 05:53:00,27.0,23.0,30.63,North,11,0.0,-999.0,85,-99.99,,,-99.99,,2013-12-12 11:53:00,
2013-12-12 06:12:00,27.0,23.0,30.62,North,11,0.0,-999.0,86,-99.99,,,-99.99,,2013-12-12 12:12:00,
2013-12-12 06:22:00,27.0,23.0,30.63,North,11,0.0,-999.0,86,-99.99,,,-99.99,,2013-12-12 12:22:00,
2013-12-12 06:42:00,26.0,22.0,30.63,North,11,0.0,-999.0,86,-99.99,,,-99.99,,2013-12-12 12:42:00,
2013-12-12 06:52:00,26.0,23.0,30.63,North,11,0.0,-999.0,87,-99.99,,,-99.99,,2013-12-12 12:52:00,
2013-12-12 07:12:00,26.0,23.0,30.63,North,11,0.0,-999.0,87,-99.99,,,-99.99,,2013-12-12 13:12:00,
2013-12-12 07:22:00,26.0,23.0,30.63,North,11,0.0,-999.0,87,-99.99,,,-99.99,,2013-12-12 13:22:00,
2013-12-12 07:42:00,26.0,23.0,30.64,North,11,0.0,-999.0,87,-99.99,,,-99.99,,2013-12-12 13:42:00,
2013-12-12 07:52:00,26.0,23.0,30.64,North,11,0.0,-999.0,88,-99.99,,,-99.99,,2013-12-12 13:52:00,
2013-12-12 08:11:00,26.0,23.0,30.65,North,11,0.0,-999.0,87,-99.99,,,-99.99,,2013-12-12 14:11:00,
2013-12-12 08:22:00,26.0,23.0,30.64,North,11,0.0,-999.0,87,-99.99,,,-99.99,,2013-12-12 14:22:00,
2013-12-12 08:52:00,27.0,24.0,30.64,North,11,0.0,-999.0,87,-99.99,,,-99.99,,2013-12-12 14:52:00,
2013-12-12 09:22:00,29.0,26.0,30.65,North,11,0.0,-999.0,87,-99.99,,,-99.99,,2013-12-12 15:22:00,
2013-12-12 09:54:00,33.0,29.0,30.66,North,11,0.0,-999.0,85,-99.99,,,-99.99,,2013-12-12 15:54:00,
2013-12-12 10:12:00,34.0,29.0,30.66,North,11,0.0,-999.0,83,-99.99,,,-99.99,,2013-12-12 16:12:00,
2013-12-12 10:23:00,36.0,30.0,30.66,North,11,1.0,-999.0,79,-99.99,,,-99.99,,2013-12-12 16:23:00,
2013-12-12 10:43:00,36.0,29.0,30.65,ESE,115,4.0,-999.0,77,-99.99,,,-99.99,,2013-12-12 16:43:00,
2013-12-12 10:53:00,37.0,30.0,30.66,SE,124,6.0,-999.0,75,-99.99,,,-99.99,,2013-12-12 16:53:00,
2013-12-12 11:23:00,39.0,31.0,30.65,SE,138,4.0,-999.0,74,-99.99,,,-99.99,,2013-12-12 17:23:00,
2013-12-12 11:43:00,39.0,31.0,30.65,SE,134,5.0,-999.0,72,-99.99,,,-99.99,,2013-12-12 17:43:00,
2013-12-12 11:53:00,39.0,31.0,30.64,SE,128,4.0,-999.0,73,-99.99,,,-99.99,,2013-12-12 17:53:00,
2013-12-12 12:22:00,41.0,32.0,30.62,SE,132,3.0,-999.0,69,-99.99,,,-99.99,,2013-12-12 18:22:00,
2013-12-12 12:52:00,42.0,33.0,30.59,SE,133,2.0,-999.0,69,-99.99,,,-99.99,,2013-12-12 18:52:00,
2013-12-12 13:21:00,43.0,33.0,30.57,SE,132,1.0,-999.0,67,-99.99,,,-99.99,,2013-12-12 19:21:00,
2013-12-12 13:42:00,44.0,34.0,30.56,SE,132,1.0,-999.0,67,-99.99,,,-99.99,,2013-12-12 19:42:00,
2013-12-12 13:52:00,44.0,33.0,30.55,SE,132,3.0,-999.0,65,-99.99,,,-99.99,,2013-12-12 19:52:00,
2013-12-12 14:21:00,46.0,35.0,30.53,SE,134,2.0,-999.0,64,-99.99,,,-99.99,,2013-12-12 20:21:00,
2013-12-12 14:42:00,46.0,35.0,30.53,SE,135,1.0,-999.0,64,-99.99,,,-99.99,,2013-12-12 20:42:00,
2013-12-12 14:52:00,47.0,34.0,30.51,SE,135,1.0,-999.0,60,-99.99,,,-99.99,,2013-12-12 20:52:00,
2013-12-12 15:21:00,47.0,34.0,30.50,SE,136,0.0,-999.0,60,-99.99,,,-99.99,,2013-12-12 21:21:00,
2013-12-12 15:53:00,47.0,34.0,30.49,SE,136,1.0,-999.0,61,-99.99,,,-99.99,,2013-12-12 21:53:00,
2013-12-12 16:22:00,47.0,33.0,30.47,SE,133,3.0,-999.0,59,-99.99,,,-99.99,,2013-12-12 22:22:00,
2013-12-12 16:53:00,46.0,33.0,30.46,SE,133,0.0,-999.0,61,-99.99,,,-99.99,,2013-12-12 22:53:00,
2013-12-12 17:22:00,45.0,33.0,30.44,SE,133,0.0,-999.0,63,-99.99,,,-99.99,,2013-12-12 23:22:00,
2013-12-12 17:43:00,44.0,33.0,30.45,SE,133,0.0,-999.0,64,-99.99,,,-99.99,,2013-12-12 23:43:00,
2013-12-12 17:53:00,44.0,33.0,30.44,SE,133,0.0,-999.0,66,-99.99,,,-99.99,,2013-12-12 23:53:00,
2013-12-12 18:22:00,43.0,33.0,30.44,SE,133,0.0,-999.0,67,-99.99,,,-99.99,,2013-12-13 00:22:00,
2013-12-12 18:53:00,42.0,33.0,30.44,SE,133,0.0,-999.0,71,-99.99,,,-99.99,,2013-12-13 00:53:00,
2013-12-12 19:21:00,41.0,33.0,30.45,SE,133,0.0,-999.0,73,-99.99,,,-99.99,,2013-12-13 01:21:00,
2013-12-12 19:42:00,41.0,33.0,30.44,SE,133,0.0,-999.0,74,-99.99,,,-99.99,,2013-12-13 01:42:00,
2013-12-12 19:52:00,40.0,33.0,30.43,SE,133,0.0,-999.0,75,-99.99,,,-99.99,,2013-12-13 01:52:00,
2013-12-12 20:11:00,41.0,33.0,30.42,SE,133,0.0,-999.0,74,-99.99,,,-99.99,,2013-12-13 02:11:00,
2013-12-12 20:22:00,41.0,34.0,30.42,SE,133,0.0,-999.0,75,-99.99,,,-99.99,,2013-12-13 02:22:00,
2013-12-12 20:52:00,40.0,34.0,30.42,SE,133,0.0,-999.0,78,-99.99,,,-99.99,,2013-12-13 02:52:00,
2013-12-12 21:11:00,40.0,34.0,30.42,SE,133,0.0,-999.0,78,-99.99,,,-99.99,,2013-12-13 03:11:00,
2013-12-12 21:22:00,39.0,34.0,30.42,SE,133,0.0,-999.0,81,-99.99,,,-99.99,,2013-12-13 03:22:00,
2013-12-12 21:53:00,39.0,34.0,30.40,SE,133,0.0,-999.0,81,-99.99,,,-99.99,,2013-12-13 03:53:00,
2013-12-12 22:22:00,39.0,34.0,30.40,SE,133,0.0,-999.0,81,-99.99,,,-99.99,,2013-12-13 04:22:00,
2013-12-12 22:53:00,39.0,34.0,30.38,SE,133,0.0,-999.0,81,-99.99,,,-99.99,,2013-12-13 04:53:00,
2013-12-12 23:22:00,40.0,35.0,30.38,SE,133,0.0,-999.0,83,-99.99,,,-99.99,,2013-12-13 05:22:00,
2013-12-12 23:53:00,39.0,35.0,30.36,SE,133,0.0,-999.0,84,-99.99,,,-99.99,,2013-12-13 05:53:00,